Terug naar catalogus

FENGYUN 1C DEB

ActiefSSO
NORAD 29996·DEBRIS·🇨🇳 China

Gelanceerd May 10, 1999 vanaf Taiyuan Satellite Launch Center

Loading…

Volgende Passages (komende 24 uur)

TLE

VersSource: Space-Track

Epoch: Sep 14, 2026, 02:15 UTC

1 29996U 99025LW  26257.09396324  .00001763  00000-0  93093-3 0  9992
2 29996  99.2911 308.7607 0129775  40.7472 349.8938 14.10991236   150

Volg FENGYUN 1C DEB in realtime met AllMySat

Download on the App Store